Retour au catalogue

ELEKTRO-L

ActifMétéoGEO
NORAD 37344·PAYLOAD·🇷🇺 Russia

Lancé Jan 20, 2011 depuis Baikonur Cosmodrome

Loading…

TLE

FraisSource: Space-Track

Époque: Sep 14, 2026, 13:21 UTC

1 37344U 11001A   26257.55646623  .00000111  00000-0  00000-0 0  9996
2 37344   9.8852  53.5667 0003664  42.4744 312.3977  1.00182444 57379

Suivez ELEKTRO-L en temps réel avec AllMySat

Download on the App Store